Главная страница
METAR-TAF:

METAR-TAF

Аэропорты :

Frederick Municipal Airport

Фредерик, Мэриленд, США

широта: 39-25-03N, долгота: 077-22-28W, высота над уровнем моря: 92 м

Текущие метеонаблюдения

Эта сводка был подготовлена 57 минут назад, в 17:47 UTC
Ветер 3 Узел от восточно-юго-восточный
Температура 23°C
Влажность 73%
Давление 1012 hPa
Видимость: 16.1 км
Сплошная облачность на высоте 1800 фута

METAR: KFDK 121747Z 11003KT 10SM OVC018 23/18 A2988

Время: 14:44 (18:44 UTC)


TAF: отсутствует

Метеонаблюдения и прогнозы для более 4000 аэропортов (сводки METAR и TAF).

Имеющиеся станции представлены на карте желтыми и красными точками.

Чтобы увидеть название станции, наведите на нее мышь.

Затем щелкните, чтобы увидеть метеонаблюдения и метеопрогнозы.

Управление картой: чтобы увеличить масштаб, щелкните зеленые кнопки с черным крестиком; чтобы уменьшить масштаб, щелкните зеленую кнопку с тире; для просмотра соседних карт щелкайте зеленые стрелки.


METAR-TAF: